www.pogodaiklimat.ru
ПОГОДА в Леско

Архив погоды в Леско (Польша)

Время
(UTC), дата
16 21.05
17 21.05
18 21.05
19 21.05
20 21.05
21 21.05
22 21.05
23 21.05
00 22.05
01 22.05
02 22.05
03 22.05
04 22.05
05 22.05
06 22.05
07 22.05
08 22.05
09 22.05
10 22.05
11 22.05
12 22.05
13 22.05
14 22.05
15 22.05
16 22.05
17 22.05
18 22.05
19 22.05
20 22.05
21 22.05
22 22.05
23 22.05
00 23.05
01 23.05
02 23.05
03 23.05
04 23.05
05 23.05
06 23.05
07 23.05
08 23.05
09 23.05
10 23.05
11 23.05
12 23.05
13 23.05
14 23.05
15 23.05
16 23.05
17 23.05
18 23.05
19 23.05
20 23.05
21 23.05
22 23.05
23 23.05
00 24.05
01 24.05
02 24.05
03 24.05
04 24.05
05 24.05
06 24.05
07 24.05
08 24.05
09 24.05
10 24.05
11 24.05
12 24.05
13 24.05
14 24.05
15 24.05
16 24.05
17 24.05
18 24.05
19 24.05
20 24.05
21 24.05
22 24.05
23 24.05
00 25.05
01 25.05
02 25.05
03 25.05
04 25.05
05 25.05
06 25.05
07 25.05
08 25.05
09 25.05
10 25.05
11 25.05
12 25.05
13 25.05
14 25.05
15 25.05
16 25.05
17 25.05
18 25.05
19 25.05
20 25.05
21 25.05
22 25.05
23 25.05
00 26.05
01 26.05
02 26.05
03 26.05
04 26.05
05 26.05
06 26.05
07 26.05
08 26.05
09 26.05
10 26.05
11 26.05
12 26.05
13 26.05
14 26.05
15 26.05
16 26.05
17 26.05
18 26.05
19 26.05
20 26.05
21 26.05
22 26.05
23 26.05
00 27.05
01 27.05
02 27.05
03 27.05
04 27.05
05 27.05
06 27.05
07 27.05
08 27.05
09 27.05
10 27.05
11 27.05
12 27.05
13 27.05
14 27.05
15 27.05
16 27.05
17 27.05
18 27.05
19 27.05
20 27.05
21 27.05
22 27.05
23 27.05
00 28.05
01 28.05
02 28.05
03 28.05
04 28.05
05 28.05
06 28.05
07 28.05
08 28.05
09 28.05
10 28.05
11 28.05
12 28.05
13 28.05
14 28.05
15 28.05
Ветер
(напр.,м/с)
Видим. Явления Облачность Т
(С)
Тd
(С)
f
(%)
Тe
(С)
Тes
(С)
Комфортность P
(гПа)
Po
(гПа)
Тmin
(С)
Tmax
(С)
R
(мм)
R24
(мм)
S
(см)
ЮВ 3 35 км 5/3 1500 м
[Cu med, cong Ac trans Ci sp]
+22.0 +13.1 57 +25 +26 комфорт 1010.9 962.7
В 2 35 км 6/1 1000 м
[Cu med, cong Ac trans Ci sp]
+20.6 +13.3 63 +24 +24 комфорт 1010.7 962.3
В 2 35 км {ливн. дождь} 6/1 1000 м
[Sc diur, vesp Ac trans Ci sp]
+20.4 +12.1 59 +23 +23 комфорт 1010.5 962.1 +15.5 +24.1 0.0
ЮВ 1 35 км 5/1 1000 м
[Sc Ac trans Ci sp]
+17.7 +12.4 71 +19 +19 1011.5 962.6
ЮВ 1 35 км 3/0
[Ac trans Ci sp]
+16.8 +12.7 77 +18 +18 1011.1 962.1
Ю 2 30 км н/о +14.7 +13.2 91 +14 +14 1011.4 962.0
В 1 35 км н/о +15.2 +12.9 86 +16 +16 1011.2 961.9
Ю 1 30 км н/о +14.5 +12.7 89 +15 +15 1011.2 961.8
ЮВ 2 35 км н/о +14.1 +12.3 89 +14 +14 1011.2 961.7
ЮВ 2 29 км н/о +13.1 +12.2 94 +12 +12 1011.0 961.3
ЮВ 1 30 км н/о +12.9 +12.0 94 +13 +13 1011.0 961.3
ЮВ 2 30 км н/о +12.3 +11.4 94 +11 +11 1011.0 961.2
Ю 1 35 км н/о +12.8 +11.5 92 +13 +13 1010.9 961.2
В 1 30 км 4/1 1500 м
[Cu hum Ac trans Ci fib]
+16.1 +12.5 79 +17 +19 1010.5 961.4
ЮВ 1 35 км 4/1 1500 м
[Cu hum Ac trans Ci fib]
+18.9 +13.3 70 +21 +26 комфорт 1010.1 961.4 +12.2 +20.4 0.0
ЮВ 2 35 км 6/1 1500 м
[Cu hum Ac trans Ci fib]
+21.2 +13.4 61 +24 +30 комфорт 1009.8 961.5
ЮЗ 3 35 км 9/1 1500 м
[Cu hum Ac und]
+20.2 +12.4 61 +22 +26 комфорт 1010.4 961.9
Ю 3 35 км 9/4 1000 м
[Cu med, cong Ac trans]
+21.3 +13.2 60 +24 +28 комфорт 1010.6 962.3
Ю 2 35 км 9/4 1000 м
[Cu med, cong Ac trans]
+19.9 +12.9 64 +22 +27 комфорт 1010.7 962.2
Ю 3 35 км в посл. час ливневой дождь 9/5 1000 м
[Cu med, cong Ac trans]
+22.8 +13.6 56 +26 +30 жарко 1009.7 961.7
ЮЗ 3 35 км {ливн. дождь} 9/5 1000 м
[Cu med, cong Ac trans]
+21.6 +13.2 59 +24 +28 комфорт 1010.1 961.9 0.0
Ю 2 35 км 9/4 1000 м
[Cu med, cong Ac trans]
+21.1 +12.0 56 +23 +27 комфорт 1010.1 961.8
В 3 35 км в посл. час ливневой дождь 9/9 1000 м
[Cb cap]
+17.8 +10.7 63 +18 +19 1010.9 962.0
В 3-9 {9} 35 км слаб. ливневой дождь 10/10 1000 м
[Cb cap]
+16.7 +12.4 76 +16 +16 1011.5 962.4
Ю 1 22 км слаб. ливневой дождь 10/10 600 м
[Cb cap]
+15.4 +14.8 96 +16 +16 1011.4 962.1
Ю 1 20 км в посл. час ливневой дождь 9/5 1000 м
[Cu med, cong Ac trans]
+15.5 +14.9 96 +16 +16 1011.1 961.8
Ю 2 {9} 25 км {ливн. дождь} 9/1 1000 м
[Sc diur, vesp Ac und]
+15.5 +14.9 96 +15 +15 1011.2 961.9 +15.1 +22.8 2
В 3 25 км 9/0
[Ac und]
+15.2 +14.7 97 +14 +14 1011.7 962.4
Ю 1 15 км 8/0
[Ac trans]
+14.7 +14.2 97 +15 +15 1012.1 962.7
В 1 15 км н/о +14.4 +14.1 98 +15 +15 1012.3 962.8
Ю 1 10 км н/о +14.4 +14.1 98 +15 +15 1012.5 963.0
СЗ 1 4800 м в посл. час туман н/о +14.1 +13.8 98 +14 +14 1012.6 963.0
ЮВ 1 700 м туман н/о +13.7 +13.4 98 +14 +14 1012.7 963.1
В 1 12 км в посл. час туман н/о +13.9 +13.7 99 +14 +14 1012.8 963.2
штиль 0 4800 м дымка н/о +13.8 +13.6 99 +13 +13 1012.9 963.3
ЮВ 1 4100 м в посл. час туман н/о +13.6 +13.4 99 +14 +14 1013.5 963.8
Ю 1 4900 м в посл. час туман н/о +13.7 +13.5 99 +14 +14 1013.8 964.1
штиль 0 2000 м туман на расстоянии 10/10 600 м
[Sc]
+14.3 +14.1 99 +14 +14 1014.0 964.4
З 1 2000 м туман на расстоянии 10/10 60 м
[St]
+15.0 +14.7 98 +15 +15 1014.3 964.8 +13.5 +16.0 2.0
ЮЗ 1 2500 м в посл. час дождь 10/10 120 м
[St]
+16.0 +15.0 94 +17 +17 1014.5 965.2
З 3 6000 м дымка 10/10 150 м
[St]
+15.9 +13.9 88 +15 +15 1014.9 965.5
СЗ 2 8000 м в посл. час дождь 10/10 180 м
[St]
+16.1 +14.1 88 +16 +16 1015.3 965.9
С 1 8000 м слаб. дождь 10/9 300 м
[Frnb]
+15.9 +14.6 92 +17 +18 1015.4 966.0
В 1 6000 м дождь 10/9 300 м
[Frnb]
+15.8 +15.0 95 +16 +17 1015.8 966.4
В 1 8000 м дождь 10/9 270 м
[Frnb]
+16.2 +15.2 94 +17 +18 1016.1 966.7 4
ЮВ 2 15 км в посл. час дождь 10/10 600 м
[Sc]
+16.6 +15.0 90 +17 +17 1016.1 966.8
ЮВ 2 25 км слаб. ливневой дождь 9/9 600 м
[Cb cap]
+16.7 +15.1 90 +17 +18 1016.1 966.8
ЮВ 1 15 км слаб. ливневой дождь 10/10 600 м
[Cb cap]
+16.8 +15.5 92 +18 +18 1016.0 966.7
Ю 1 30 км в посл. час ливневой дождь 8/4 1000 м
[Cu med, cong Ac trans]
+17.5 +14.6 83 +19 +20 1016.0 966.8
В 1 35 км 8/3 1000 м
[Cu med, cong Ac trans]
+17.5 +15.3 87 +19 +19 1016.4 967.2
З 1 35 км {ливн. дождь, дождь} 9/1 1000 м
[Sc diur, vesp Ac trans Ci sp]
+16.8 +15.7 93 +18 +18 1016.7 967.4 +15.0 +17.6 5
С 1 20 км 9/0
[Ac und Ci sp]
+16.0 +15.4 96 +17 +17 1017.7 968.2
Ю 1 100 м туман, небо видно 9/0
[Ac und]
+15.4 +15.1 98 +16 +16 1018.0 968.4
В 1 500 м слаб. дождь н/о +15.2 +15.0 99 +16 +16 1018.5 968.8
ЮВ 1 800 м туман н/о +15.1 +14.9 99 +16 +16 1018.6 968.9
В 1 12 км в посл. час туман н/о +15.2 +15.0 99 +16 +16 1018.7 969.0
В 1 17 км н/о +14.8 +14.6 99 +15 +15 1018.9 969.1 0.0
ЮВ 2 22 км н/о +14.4 +14.1 98 +14 +14 1019.0 969.2
ЮВ 1 12 км н/о +13.9 +13.6 98 +14 +14 1018.9 969.0
ЮВ 2 15 км н/о +13.4 +13.2 99 +13 +13 1019.2 969.2
ЮВ 2 23 км н/о +13.7 +13.4 98 +13 +13 1019.5 969.5
В 2 30 км 9/9 150 м
[St]
+14.3 +13.5 95 +14 +14 1019.6 969.7
ЮВ 1 35 км 3/3 300 м
[Sc]
+16.1 +14.1 88 +17 +22 1019.6 970.0 +13.2 +16.8 0.0 4.8
ЮЗ 1 35 км 3/1 600 м
[Cu med, cong Ci sp]
+18.0 +14.3 79 +19 +29 1019.3 970.1
ЮВ 1 35 км 3/3 1000 м
[Cu med, cong]
+20.7 +13.4 63 +24 +35 комфорт 1019.1 970.3
В 2 35 км 3/3 1000 м
[Cu med, cong]
+22.8 +12.4 52 +26 +36 жарко 1018.5 970.1
ЮВ 2 35 км 6/5 1000 м
[Cu med, cong Ac trans]
+23.1 +11.2 47 +25 +33 комфорт 1018.5 970.1
С 1 35 км в посл. час гроза {ливн. дождь} 8/8 1000 м
[Cb cap]
+23.3 +12.0 49 +26 +30 жарко 1018.0 969.7
Ю 5 35 км в посл. час гроза {ливн. дождь} 8/8 1000 м
[Cb cap]
+22.0 +8.5 42 +23 +25 комфорт 1018.5 969.9 1
Ю 2 35 км 4/3 1000 м
[Cu med, cong Ci sp]
+24.1 +9.3 39 +25 +34 комфорт 1017.6 969.4
Ю 3 35 км 4/3 1000 м
[Cu med, cong Ci sp]
+25.3 +6.5 30 +25 +30 комфорт 1017.1 969.1
Ю 2 35 км 5/4 1000 м
[Cu med, cong Ci sp]
+25.6 +5.7 28 +25 +29 комфорт 1017.0 969.1
В 3-8 {8} 35 км гроза, ливневой дождь 9/9 1000 м
[Cb cap]
+23.3 +7.8 37 +24 +24 комфорт 1017.8 969.5
СЗ 3 {14} 35 км гроза без осадков {ливн. дождь} 9/9 1000 м
[Cb cap]
+17.4 +11.9 70 +17 +17 1019.3 970.0
ЮВ 2 {14} 35 км гроза без осадков {ливн. дождь} 9/9 1000 м
[Cb cap]
+15.1 +13.3 89 +15 +15 1021.2 971.4 +15.1 +25.8 3
Ю 3 35 км в посл. час гроза 9/9 1000 м
[Cb cap]
+16.3 +9.7 65 +16 +16 1021.3 971.7
В 2 35 км 6/5 1000 м
[Sc Ac trans]
+15.0 +11.2 78 +15 +15 1021.2 971.4
Ю 2 35 км н/о +14.6 +10.0 74 +14 +14 1021.2 971.3
Ю 2 35 км н/о +13.3 +10.1 81 +13 +13 1022.0 971.8
Ю 1 35 км н/о +13.4 +9.8 79 +14 +14 1021.7 971.6
В 1 35 км н/о +12.7 +10.6 87 +13 +13 1022.1 971.8
ЮВ 1 30 км н/о +11.4 +10.5 94 +11 +11 1022.1 971.6
В 2 30 км н/о +10.7 +9.9 95 +9 +9 1021.8 971.2
ЮВ 2 27 км н/о +10.1 +9.6 97 +8 +8 1022.2 971.5
Ю 1 30 км н/о +10.6 +9.8 95 +10 +10 1022.3 971.7
ЮВ 1 35 км 4/0
[Ac trans Ci fib]
+13.4 +10.7 84 +14 +16 1021.9 971.8
штиль 0 35 км 4/0
[Ac trans Ci fib]
+15.7 +10.9 73 +16 +22 1021.7 972.0 +9.9 +17.4 2.6
СЗ 1 35 км 3/1 1500 м
[Cu hum Ac trans]
+17.9 +12.6 71 +19 +28 1021.2 971.8
СЗ 1 35 км 3/1 1500 м
[Cu hum Ci fib]
+19.9 +11.4 58 +23 +36 комфорт 1020.8 971.8
С 1 35 км 3/1 1500 м
[Cu hum Ci fib]
+22.1 +11.5 51 +24 +40 комфорт 1020.4 971.8
СЗ 2 35 км 4/4 1000 м
[Cu med, cong]
+23.3 +11.0 46 +26 +36 жарко 1019.7 971.3
З 6-11 {11} 25 км гроза, ливневой дождь 9/9 1000 м
[Cb cap]
+17.2 +10.8 66 +16 +17 1021.1 971.6
СВ 3 {11} 25 км слаб. ливневой дождь, в посл. час гроза 9/9 1000 м
[Cb cap]
+16.5 +13.8 84 +16 +17 1021.4 971.8 5
З 1 30 км в посл. час ливневой дождь 9/9 1500 м
[Cb cap]
+18.2 +15.6 85 +20 +21 1020.4 971.1
В 3 35 км 8/3 1500 м
[Cu med, cong Ci ing]
+22.2 +12.7 55 +25 +30 комфорт 1019.0 970.5
В 4 35 км {ливн. дождь} 8/3 1500 м
[Cu med, cong Ci ing]
+23.1 +9.1 41 +25 +27 комфорт 1018.5 970.1
В 3 35 км 6/3 1500 м
[Cu med, cong Ci sp]
+22.3 +9.8 45 +24 +26 комфорт 1018.6 970.1
В 2 35 км 6/4 1000 м
[Cb cap Ci sp]
+20.7 +8.7 46 +23 +23 комфорт 1019.0 970.2
В 2 35 км {ливн. дождь} 6/3 1500 м
[Cb cap Ac trans Ci sp]
+19.3 +7.7 47 +21 +21 комфорт 1019.5 970.5 +15.7 +23.5 5
ЮВ 2 35 км 6/3 1500 м
[Cu med, cong Ac trans Ci sp]
+16.4 +9.8 65 +17 +17 1020.8 971.2
В 2 35 км 6/3 1500 м
[Cu med, cong Ac trans Ci sp]
+16.0 +9.4 65 +16 +16 1020.7 971.1
ЮВ 2 35 км н/о +14.1 +9.9 76 +14 +14 1021.4 971.4
СЗ 1 30 км н/о +13.1 +9.7 80 +13 +13 1021.8 971.6
В 1 35 км н/о +12.2 +9.9 86 +12 +12 1021.8 971.5
ЮВ 2 35 км н/о +11.3 +9.6 89 +10 +10 1021.9 971.4
ЮВ 3 35 км н/о +10.6 +9.2 91 +8 +8 1021.9 971.3
ЮВ 2 35 км н/о +9.8 +9.0 95 +8 +8 1022.1 971.3
ЮВ 1 30 км н/о +9.8 +8.9 94 +9 +9 1022.2 971.4
ЮВ 1 35 км н/о +10.4 +8.8 90 +10 +10 1022.4 971.7
В 1 35 км 3/0
[Ci sp]
+13.6 +9.4 76 +14 +17 1021.8 971.7
В 2 30 км 3/0
[Ci sp]
+16.4 +8.9 61 +17 +22 1021.6 972.0 +9.5 +19.4 5.0
ЮВ 1 35 км 3/1 1000 м
[Cu hum Ci sp]
+18.9 +9.9 56 +21 +30 комфорт 1021.1 971.9
ЮВ 1 35 км 3/1 1000 м
[Cu hum Ci sp]
+21.2 +9.1 46 +22 +35 комфорт 1020.9 972.1
Ю 2 35 км 3/1 1000 м
[Cu hum Ci sp]
+22.6 +9.0 42 +24 +38 комфорт 1020.6 972.0
В 2 35 км 4/3 1000 м
[Cu med, cong Ci sp]
+23.6 +8.1 37 +24 +36 комфорт 1020.3 971.9
СВ 3 35 км 4/3 1000 м
[Cu med, cong Ci sp]
+23.5 +6.7 34 +24 +34 комфорт 1020.2 971.8
СВ 3 35 км 3/1 1500 м
[Cu med, cong Ci sp]
+24.4 +5.2 29 +24 +35 комфорт 1019.6 971.4
СВ 4 35 км 3/1 1500 м
[Cu med, cong Ci sp]
+24.4 +5.2 29 +24 +32 комфорт 1019.3 971.1
СВ 4 35 км 3/3 1500 м
[Cb calv]
+24.5 +7.2 33 +25 +29 комфорт 1019.1 970.9
СВ 4 35 км 3/1 1500 м
[Cu med, cong Ci sp]
+24.2 +6.5 32 +24 +28 комфорт 1019.1 970.9
В 4 35 км 3/1 1500 м
[Cu med, cong Ci sp]
+23.9 +6.2 32 +24 +26 комфорт 1019.2 970.9
В 4 35 км 4/1 1500 м
[Cu med, cong Ac trans Ci sp]
+23.1 +4.1 29 +23 +24 комфорт 1019.6 971.2
В 2 35 км 4/1 1500 м
[Sc diur, vesp Ac trans Ci sp]
+21.1 +4.6 34 +21 +22 комфорт 1020.3 971.5 +16.4 +25.0
В 2 35 км 3/0
[Ci sp]
+18.9 +4.3 38 +20 +20 1021.1 971.9
В 2 35 км 3/0
[Ci sp]
+17.2 +4.2 42 +18 +18 1021.6 972.1
ЮВ 1 35 км н/о +15.0 +5.5 53 +16 +16 1022.2 972.3
ЮВ 1 35 км н/о +14.0 +6.4 60 +14 +14 1022.7 972.6
Ю 2 35 км н/о +11.1 +7.2 77 +10 +10 1023.3 972.7
ЮВ 2 35 км н/о +10.0 +7.1 82 +9 +9 1023.2 972.4
ЮВ 1 35 км н/о +9.1 +7.2 88 +8 +8 1023.3 972.3
ЮВ 1 35 км н/о +8.3 +6.6 89 +7 +7 1023.4 972.3
Ю 1 35 км н/о +7.8 +5.8 87 +7 +7 1023.6 972.4
В 2 35 км н/о +9.5 +6.4 81 +8 +8 1023.4 972.5
ЮВ 1 35 км ясно +11.7 +7.6 76 +12 +15 1023.2 972.7
ЮЗ 1 35 км ясно +15.3 +8.3 63 +16 +23 1022.8 972.9 +7.5 +21.1
ЮВ 2 35 км 1/0
[Ci sp]
+19.3 +7.4 46 +21 +30 комфорт 1021.7 972.6
ЮВ 4 35 км 1/0
[Ci sp]
+22.1 +3.2 29 +22 +31 комфорт 1021.1 972.4
ЮВ 4 35 км 1/0
[Ci sp]
+23.0 +0.7 23 +22 +33 комфорт 1020.9 972.4
В 2 35 км 1/0
[Ci sp]
+23.8 +1.4 23 +23 +40 комфорт 1020.5 972.1
В 3 35 км 4/1 1500 м
[Cu hum Ci sp]
+24.5 +2.6 24 +24 +36 комфорт 1020.0 971.8
ЮВ 2 35 км 4/1 1500 м
[Cu hum Ci sp]
+24.9 +2.3 23 +24 +37 комфорт 1019.3 971.2
В 4 35 км 4/1 1500 м
[Cu hum Ci sp]
+24.4 +3.6 26 +24 +31 комфорт 1019.0 970.8
В 4 35 км 4/1 1500 м
[Cu hum Ci sp]
+24.3 +4.6 28 +24 +29 комфорт 1018.6 970.4
В 5 35 км 4/1 1500 м
[Cu hum Ci sp]
+23.6 +4.0 28 +23 +26 комфорт 1018.4 970.1
В 4 {9} 35 км 6/1 1500 м
[Cu hum Cs]
+23.3 +4.3 29 +23 +25 комфорт 1018.2 969.9
В 4-9 {9} 35 км 9/1 1500 м
[Sc diur, vesp Cs]
+22.0 +2.6 28 +22 +22 комфорт 1018.6 970.0
В 2 {9} 35 км 8/1 1500 м
[Sc Cs]
+20.0 +3.2 33 +21 +21 комфорт 1018.9 970.0 +15.2 +25.0
В 2 35 км 4/0
[Ci sp]
+17.8 +3.6 39 +18 +18 1019.5 970.2
В 1 35 км 4/0
[Ci sp]
+16.5 +3.9 43 +17 +17 1019.7 970.2
В 1 35 км н/о +15.0 +4.4 49 +16 +16 1020.2 970.4
В 1 35 км н/о +13.9 +5.5 57 +14 +14 1020.2 970.2
Ю 3 35 км н/о +11.6 +5.7 67 +10 +10 1020.5 970.1
ЮВ 2 35 км н/о +10.8 +5.7 71 +10 +10 1020.4 969.9
ЮВ 2 35 км н/о +10.1 +6.2 77 +9 +9 1020.1 969.5
ЮВ 3 35 км н/о +9.2 +5.6 78 +7 +7 1020.1 969.3
ЮВ 3 35 км н/о +8.9 +5.6 80 +6 +6 1019.7 968.9
В 1 35 км н/о +9.9 +7.1 83 +9 +9 1019.2 968.6
штиль 0 35 км 8/0
[Ac trans Ci sp]
+13.8 +7.6 66 +14 +16 1018.5 968.6
штиль 0 35 км 8/0
[Ac trans Ci sp]
+14.1 +8.1 67 +14 +19 1018.6 968.7 +8.6 +20.0
В 2 35 км 5/0
[Ac trans Ci sp]
+19.3 +9.2 52 +21 +28 комфорт 1017.7 968.7
В 4 {9} 35 км 9/0
[Ac trans Ci sp]
+19.4 +6.8 44 +20 +24 1017.8 968.9
В 3 {9} 35 км 9/3 1500 м
[Cu hum Ac trans Ci sp]
+19.4 +6.5 43 +20 +26 1017.7 968.8
В 5-10 {11} 35 км 8/3 1500 м
[Cu hum Ac trans Ci sp]
+19.8 +6.5 42 +20 +24 1017.3 968.4
В 4-9 {9} 35 км 8/6 1500 м
[Cu med, cong Ci sp]
+19.7 +8.1 47 +21 +25 комфорт 1016.6 967.8
В 4-9 {11} 35 км 5/5 1500 м
[Cu med, cong]
+19.7 +9.3 51 +21 +26 комфорт 1016.4 967.6
В 4 {9} 35 км 5/5 1000 м
[Cu med, cong]
+19.7 +8.4 48 +21 +25 комфорт 1015.8 967.0
СВ 3 35 км 5/5 1000 м
[Cu med, cong]
+20.6 +9.2 48 +22 +26 комфорт 1015.0 966.4
СВ 3 {9} 35 км 4/4 1500 м
[Cu med, cong]
+20.8 +9.7 49 +23 +26 комфорт 1014.5 965.9
Местоположение метеостанции Леско (Польша): широта 49.47 долгота 22.35 высота над уровнем моря 422 м.
В архиве по умолчанию представлена погода в Леско за последнюю неделю. Архивные данные за месяц целиком и за предыдущие месяцы, начиная с января 2011 года, Вы можете получить, выбрав интересующий диапазон дат из раскрывающегося списка и нажав кнопку "Найти!".
*Определитесь, кто Вы:
Внимание! Время в таблицах - всемирное. Для получения местного времени необходимо прибавить поправку, которая равна 1 ч.
Некоторые строки с данными для отдельных станций могут быть выделены курсивом. Это означает, что фактические данные отсутствуют по различным причинам, а приведенные значения являются расчетными модельными данными для данного пункта наблюдений.
Смотрите также архив погоды в соседних городах и на ближайших метеорологических станциях:
Партнеры нашего сайта:      
Пояснения к столбцам:
  • Ветер - указаны скорость ветра в м/с - средняя за 10 мин, порывы в срок и между сроками (в фигурных скобках) и направление, откуда дует ветер: С - северный,
  • СВ - северо-восточный, В - восточный, ЮВ - юго-восточный, Ю - южный, ЮЗ - юго-западный, З - западный, СЗ - северо-западный.
  • Видимость - горизонтальная дальность видимости в метрах или километрах. При видимости от 1 до 10 км при отсутствии осадков обычно наблюдается дымка, при ухудшении видимости до 1 км и менее - туман. В сухую погоду видимость может ухудшаться дымом, пылью или мглою.
  • Явления - указаны атмосферные явления, наблюдавшиеся в срок или в последний час перед сроком; фигурными скобками обозначены явления, наблюдавшиеся между сроками (за 1-3 часа до срока); квадратными скобками обозначены град или гололедные отложения с указанием их диаметра в мм.
  • Облачность - указаны через наклонную черту общая и нижняя облачность в баллах и высота нижней границы облаков в метрах; квадратными скобками обозначены формы облаков: Ci - перистые, Cs - перисто-слоистые, Cc - перисто-кучевые, Ac - высококучевые, As - высокослоистые, Sc - слоисто-кучевые, Ns - слоисто-дождевые, Cu - кучевые, Cb - кучево-дождевые. Подробнее классификацию облаков см. в Атласе облаков (PDF).
  • T - Температура воздуха - температура, измеренная на высоте 2 м над землей.
  • Td - Температура точки росы - температура, при понижении до которой содержащийся в воздухе водяной пар достигнет насыщения.
  • f - Относительная влажность воздуха - влажноcть воздуха, измеренная на высоте 2 м над землей.
  • Te - Эффективная температура - температура, которую ощущает одетый по сезону человек в тени. Характеристика душности погоды. При расчете учитывается влияние влажности воздуха и скорости ветра на теплоощущения человека.
  • Tes - Эффективная температура на солнце - температура, которую ощущает человек, с поправкой на солнечный нагрев. Характеристика знойности погоды. Зависит от высоты солнца над горизонтом, облачности и скорости ветра. Ночью, в пасмурную погоду, а также при ветре 12 м/с и более поправка равна нулю.
  • P - Атмосферное давление - приведенное к уровню моря атмосферное давление.
  • Po - Атмосферное давление - измеренное на уровне метеостанции атмосферное давление.
  • Tmin - Минимальная температура - минимум температуры воздуха на высоте 2 м над землей.
  • Tmax - Максимальная температура - максимум температуры воздуха на высоте 2 м над землей.
  • R - Количество осадков - Количество выпавших осадков за период времени, мм. При наведении курсора мыши на число - период времени, за который выпало указанное количество осадков.
  • R24 - Количество осадков - Количество выпавших осадков за 24 часа, мм.
  • S - Снежный покров - Высота снежного покрова, см. При наведении курсора мыши на число - состояние снежного покрова и степень покрытия местности в баллах.